Tracking 18980 objects as of 20-Feb-2018
HD Live streaming from Space Station
objects crossing your sky now

METEOR 2-8

Track METEOR 2-8 now!
10-day predictions
METEOR 2-8 is classified as:


NORAD ID: 13113
Int'l Code: 1982-025A
Perigee: 938.4 km
Apogee: 965.7 km
Inclination: 82.5 °
Period: 103.9 minutes
Semi major axis: 7323 km
RCS: 4.8522 m2 (large)
Launch date: March 25, 1982
Source: Commonwealth of Independent States (former USSR) (CIS)
Launch site: PLESETSK MISSILE AND SPACE COMPLEX (PKMTR)
aabbcc
Your satellite tracking list
Your tracking list is empty




NASA's NSSDC Master Catalog

Two Line Element Set (TLE):
1 13113U 82025A   18050.95265674 +.00000032 +00000-0 +14923-4 0  9992
2 13113 082.5420 359.9300 0018626 141.1520 282.3465 13.85374530814808
Source of the keplerian elements: AFSPC